Date,TemperatureHighF,TemperatureAvgF,TemperatureLowF,DewpointHighF,DewpointAvgF,DewpointLowF,HumidityHigh,HumidityAvg,HumidityLow,PressureMaxIn,PressureMinIn,WindSpeedMaxMPH,WindSpeedAvgMPH,GustSpeedMaxMPH,PrecipitationSumIn
2013-9-25,50.3,46.4,41.7,43.9,40.3,37.1,97,80,70,29.79,29.66,3,0,7,0.07
2013-9-26,45.4,41.4,35.9,39.2,35.3,32.3,91,79,67,30.05,29.79,2,1,7,0.03
2013-9-27,52.4,38.8,31.6,37.0,32.8,29.0,95,80,44,30.07,29.95,2,0,5,0.00
2013-9-28,60.3,53.9,43.1,43.7,39.7,36.7,83,60,45,29.93,29.71,1,0,6,0.01
2013-9-29,57.8,52.6,46.3,38.9,35.4,28.6,74,52,39,29.71,29.49,4,1,15,0.01
2013-9-30,54.9,48.5,40.7,45.3,34.9,23.7,90,62,30,29.89,29.45,4,1,10,0.05
2013-10-1,55.4,45.3,33.4,36.9,31.3,25.2,91,61,31,30.03,29.89,3,1,6,0.00
2013-10-2,50.4,45.4,37.3,38.0,30.4,26.4,73,57,42,30.14,29.94,5,0,10,0.00
2013-10-3,46.1,39.7,35.5,37.5,31.1,25.9,84,72,60,30.41,29.94,3,1,9,0.07
2013-10-4,47.0,38.4,32.0,31.7,29.1,26.2,83,70,46,30.56,30.38,1,0,5,0.00
2013-10-5,52.2,38.5,29.0,34.4,29.5,25.6,88,72,43,30.43,30.28,2,0,4,0.00
2013-10-6,61.7,45.8,33.4,44.3,35.4,29.7,92,69,43,30.31,29.98,2,0,4,0.00
2013-10-7,68.6,52.7,38.0,44.3,33.3,27.6,78,51,23,29.98,29.60,3,1,6,0.00
2013-10-8,53.9,46.6,35.9,31.9,27.8,23.1,72,49,32,30.03,29.68,3,1,7,0.00
2013-10-9,54.2,42.9,34.5,36.0,31.6,27.3,82,65,45,30.15,29.94,2,0,5,0.00
2013-10-10,57.1,42.7,31.7,38.3,31.6,22.4,92,68,27,29.94,29.74,3,1,5,0.00
2013-10-11,50.8,44.6,35.0,31.7,26.6,22.6,70,50,34,30.06,29.88,3,1,8,0.00
2013-10-12,48.5,38.8,29.5,33.5,28.4,22.5,86,67,47,30.17,30.06,1,0,3,0.00
2013-10-13,50.9,42.9,35.6,35.5,32.2,29.8,83,66,51,30.23,30.11,4,1,7,0.00
2013-10-14,43.6,41.3,39.6,33.9,31.2,29.9,80,68,61,30.29,30.23,2,0,5,0.00
2013-10-15,46.9,40.2,31.4,32.7,29.6,25.3,80,66,56,30.29,30.22,1,0,2,0.00
2013-10-16,43.9,35.5,27.9,36.3,29.7,23.7,88,80,61,30.28,30.19,2,0,5,0.02
2013-10-17,44.6,38.5,33.5,35.0,32.1,29.8,90,78,61,30.32,30.22,3,1,5,0.00
2013-10-18,48.5,38.5,29.4,32.8,29.6,26.0,90,71,51,30.33,30.13,2,0,3,0.00
2013-10-19,56.2,43.0,31.2,37.5,31.4,26.3,93,68,32,30.15,29.96,5,1,6,0.00
2013-10-20,50.4,44.7,36.4,37.2,34.2,30.2,83,67,47,30.12,30.03,4,0,6,0.00
2013-10-21,51.8,40.3,31.5,38.8,33.1,28.7,93,76,55,30.26,30.12,2,0,3,0.00
2013-10-22,53.0,41.2,32.5,40.9,33.4,29.7,94,75,51,30.27,30.13,2,0,3,0.00
2013-10-23,52.4,39.3,30.9,38.5,32.1,27.8,93,76,52,30.28,30.18,3,0,4,0.00
2013-10-24,51.5,41.1,32.0,37.8,33.8,29.4,95,76,56,30.29,30.14,2,0,4,0.00
2013-10-25,53.0,40.4,31.6,38.9,32.4,28.5,93,74,51,30.33,30.17,1,0,3,0.00
2013-10-26,52.0,38.9,29.8,34.4,28.9,24.9,92,69,45,30.37,30.12,1,0,4,0.00
2013-10-27,56.3,38.7,30.3,35.3,27.5,23.5,86,65,35,30.19,29.85,7,1,9,0.00
2013-10-28,33.5,25.7,20.3,23.7,17.2,14.7,81,70,56,30.29,30.19,2,1,6,0.00
2013-10-29,31.6,25.0,20.0,22.6,18.8,15.1,86,77,65,30.27,30.06,2,0,3,0.00
2013-10-30,41.1,29.3,21.0,28.6,23.5,18.0,92,80,60,30.10,30.01,2,0,3,0.00
2013-10-31,43.2,38.6,33.2,32.5,28.6,24.6,86,69,48,30.05,30.00,2,0,13,0.00
2013-11-13,50.3,46.0,43.4,26.6,25.4,23.5,50,45,37,30.21,30.13,6,2,14,0.00
2013-11-14,43.6,38.8,29.9,29.8,25.0,20.9,72,58,49,30.16,29.78,2,0,6,0.00
2013-11-15,43.0,38.9,31.9,28.7,21.4,18.8,81,50,40,29.78,29.38,3,1,11,0.00
2013-11-16,39.9,35.5,32.4,30.6,24.7,18.4,88,65,49,29.61,29.26,5,1,10,0.02
2013-11-17,39.7,33.2,25.5,24.0,19.7,15.7,72,58,43,30.02,29.61,3,0,8,0.00
2013-11-18,45.6,33.8,24.5,25.3,21.8,17.7,80,63,39,30.07,29.82,2,0,3,0.00
2013-11-19,56.6,46.8,36.6,33.2,28.3,23.6,65,50,34,29.82,29.58,2,0,7,0.00
2013-11-20,44.7,16.8,6.7,31.7,8.5,-1.1,85,69,58,30.58,29.62,5,2,8,0.01
2013-11-21,18.2,11.4,8.3,10.1,7.2,3.9,90,83,69,30.87,30.59,2,0,3,0.00
2013-11-22,23.3,15.1,8.1,14.4,9.0,4.3,90,77,60,30.96,30.85,2,1,4,0.00
2013-11-23,26.0,17.3,11.0,16.8,12.2,7.6,87,80,67,30.89,30.51,2,1,3,0.00
2013-11-24,30.1,23.0,15.7,23.7,17.4,12.0,87,79,71,30.52,30.18,1,0,3,0.00
2013-11-25,33.0,26.7,19.4,27.0,21.6,16.2,94,81,71,30.41,30.21,1,0,3,0.00
2013-11-26,35.4,28.3,20.1,27.3,23.2,17.3,94,81,68,30.37,30.08,1,0,2,0.00
2013-11-27,38.1,31.8,25.3,33.1,26.8,20.9,87,82,76,30.08,30.00,1,0,3,0.00
2013-11-28,33.5,26.3,21.1,26.5,22.0,18.1,94,84,73,30.14,30.04,2,0,3,0.00
2013-11-29,34.9,28.4,20.9,30.1,23.9,18.2,95,83,70,30.18,30.07,1,0,3,0.00
2013-11-30,44.8,39.1,33.7,34.0,31.7,29.6,87,75,60,30.14,29.99,3,0,6,0.00
2013-12-1,45.8,40.0,34.9,38.0,32.5,30.0,84,75,64,30.00,29.51,3,0,5,0.00
2013-12-2,38.5,28.4,9.4,35.8,23.6,1.9,93,82,71,30.02,29.40,5,1,8,0.10
2013-12-3,9.4,5.5,0.7,2.1,-0.7,-5.5,79,75,70,30.49,30.02,3,1,6,0.00
2013-12-4,6.0,0.5,-6.9,-2.1,-6.1,-12.4,78,73,66,30.56,30.47,2,0,7,0.00
2013-12-5,2.0,-2.3,-5.7,-4.0,-7.7,-11.6,84,77,70,30.56,30.14,2,0,5,0.00
2013-12-6,-4.7,-8.9,-13.3,-11.6,-17.8,-99.9,72,67,61,30.40,30.29,2,-10,6,0.00
2013-12-7,-4.7,-12.0,-16.6,-9.7,-18.5,-23.4,79,72,65,30.38,30.13,1,0,3,0.00
2013-12-8,0.2,-7.7,-14.9,-4.8,-13.1,-20.7,81,77,72,30.29,30.17,2,0,2,0.00
2013-12-9,12.7,1.3,-10.8,10.3,-2.4,-15.5,90,84,78,30.29,29.95,1,0,1,0.01
2013-12-10,25.0,19.1,12.8,21.1,15.3,10.2,91,85,73,29.98,29.83,1,0,2,0.02
2013-12-11,20.5,16.0,11.0,17.2,12.8,7.6,90,87,80,30.06,29.99,1,0,2,0.00
2013-12-12,26.2,23.9,20.7,21.7,20.4,17.3,88,86,81,30.02,29.92,1,0,1,0.00
2013-12-13,38.9,34.7,26.5,27.9,26.2,21.7,86,71,62,29.86,29.70,3,1,7,0.00
2013-12-14,45.8,36.3,28.8,30.9,27.3,23.5,86,70,54,29.88,29.70,8,1,8,0.00
2013-12-15,49.0,39.4,28.1,29.0,26.1,20.6,80,61,42,29.75,29.62,5,1,9,0.00
2013-12-16,47.5,43.0,34.9,28.4,24.2,21.8,70,48,36,29.82,29.64,4,1,7,0.00
2013-12-17,40.5,32.9,27.9,27.2,23.8,20.7,80,69,56,29.84,29.47,2,0,4,0.00
2013-12-18,46.7,34.1,16.8,29.3,23.3,10.5,79,65,41,29.81,29.62,6,1,7,0.00
2013-12-19,16.5,6.9,1.8,10.3,0.9,-2.7,84,76,67,30.19,29.81,4,1,9,0.00
2013-12-20,19.1,9.8,0.9,16.9,5.8,-3.4,91,84,79,30.17,29.69,1,0,2,0.01
2013-12-21,29.0,24.5,19.1,23.8,21.0,16.9,93,87,73,29.80,29.63,1,0,4,0.00
2013-12-22,24.9,19.2,7.9,22.3,15.3,4.4,92,85,74,30.15,29.79,3,0,7,0.00
2013-12-23,36.4,24.4,8.0,33.5,22.2,4.9,96,91,80,30.14,29.75,4,0,6,0.00
2013-12-24,36.8,34.5,31.0,28.7,20.2,16.8,80,56,48,30.17,29.86,6,2,9,0.00
2013-12-25,31.1,20.4,12.8,21.9,14.7,8.6,88,79,58,30.30,30.12,1,0,2,0.00
2013-12-26,37.1,32.2,26.0,29.2,25.8,20.8,84,77,63,30.16,30.00,1,0,3,0.00
2013-12-27,37.1,29.8,24.8,28.1,24.2,20.7,87,80,66,30.06,29.71,2,0,3,0.00
2013-12-28,41.6,22.9,15.6,27.9,14.2,6.3,78,69,57,30.22,29.72,5,1,8,0.00
2013-12-29,35.3,22.0,12.5,25.6,16.5,9.1,92,79,67,30.22,29.93,3,0,4,0.00
2013-12-30,36.6,31.4,24.7,28.4,25.1,20.9,88,78,64,30.01,29.75,2,0,6,0.00
2013-12-31,43.6,40.1,33.0,33.3,30.4,25.2,85,68,58,29.83,29.69,4,1,7,0.00
2014-1-1,38.9,34.7,24.0,25.3,22.0,18.3,79,60,46,30.07,29.82,3,0,5,0.00
2014-1-2,35.6,26.7,22.4,24.4,19.8,17.4,82,76,60,30.19,29.93,2,0,2,0.00